Content
SEND FEEDBACK

Daily
Averages
Monthly
Summary
United States of America

UPI, GUAM


Home > North America > United States > Guam
Elevation: 53 feet     Latitude: 13 34N     Longitude: 144 55E

WEATHER
 
SELECT A DAY
Number of Records: 209,308;   Date Range: 1/1/95 - 9/18/14
 
SHARE

PRINT THIS DATA

[ ← Previous Day ]
WEATHER ALMANAC - MARCH 20, 2013
[ Next Day → ]
[ °C ]   °F
Weather ElementAverageHighLow
Temperature83.3 °F88 °F (12:54 pm)79 °F (11:54 pm)
Dewpoint75.4 °F77 °F (12:10 am)72 °F (11:54 pm)
Humidity77.5 %89 % (12:10 am)63 % (1:54 pm)
Barometer29.90 in29.96 in (10:37 am)29.83 in (3:54 pm)
Wind Speed12.3 mph18.4 mph (11:54 pm)
Wind Gust25.3 mph (10:54 am)
Weather ElementAverage
Visibility10 mi
Wind DirectionENE (81.5 °)

Weather ElementTotal
Precipitation---
Cooling Degree Days18.5 (Base 65)
Growing Degree Days33.5 (Base 50)
Averaged from 40 records on March 20, 2013
WEATHER CONDITIONS BREAKOUT
WIND DIRECTION BREAKOUT
WEATHER BY HOUR - MARCH 20, 2013
[ °C ]   °F
Local TimeTemperatureDewpointHumidityBarometerVisibilityWind DirectionWind SpeedGust SpeedPrecipitationEventsConditions
12:10 AM80.6 °F77.0 °F89 %29.93 in10.0 miEast (80°)9.2 mph0.00 inScattered Clouds
12:54 AM81.0 °F77.0 °F88 %29.90 in10.0 miEast (90°)6.9 mph0.00 inScattered Clouds
1:20 AM80.6 °F77.0 °F89 %29.92 in10.0 miENE (70°)6.9 mphMostly Cloudy
1:51 AM80.6 °F75.2 °F84 %29.91 in10.0 miEast (90°)8.1 mph0.00 inMostly Cloudy
1:54 AM81.0 °F75.9 °F85 %29.88 in10.0 miEast (90°)8.1 mph0.00 inMostly Cloudy
2:54 AM81.0 °F75.9 °F85 %29.87 in10.0 miEast (80°)6.9 mphClear
3:04 AM80.6 °F77.0 °F89 %29.89 in10.0 miENE (70°)10.4 mphScattered Clouds
3:18 AM80.6 °F75.2 °F84 %29.89 in10.0 miEast (90°)8.1 mph0.00 inMostly Cloudy
3:27 AM80.6 °F75.2 °F84 %29.89 in10.0 miEast (90°)9.2 mph0.00 inScattered Clouds
3:54 AM81.0 °F75.9 °F85 %29.86 in10.0 miEast (80°)6.9 mph0.00 inPartly Cloudy
4:54 AM81.0 °F75.9 °F85 %29.86 in10.0 miEast (80°)9.2 mphScattered Clouds
5:54 AM81.0 °F75.9 °F85 %29.87 in10.0 miEast (100°)6.9 mphScattered Clouds
6:54 AM82.0 °F75.9 °F82 %29.89 in10.0 miEast (90°)10.4 mphMostly Cloudy
7:54 AM82.9 °F75.9 °F79 %29.92 in10.0 miEast (100°)9.2 mph19.6 mphMostly Cloudy
8:23 AM82.4 °F75.2 °F79 %29.95 in10.0 miEast (90°)12.7 mph18.4 mphPartly Cloudy
8:54 AM84.0 °F75.9 °F76 %29.92 in10.0 miEast (100°)15.0 mph23.0 mphScattered Clouds
9:43 AM86.0 °F77.0 °F74 %29.95 in10.0 miEast (90°)13.8 mph21.9 mphMostly Cloudy
9:54 AM86.0 °F75.9 °F72 %29.94 in10.0 miEast (90°)16.1 mphMostly Cloudy
10:37 AM86.0 °F75.2 °F70 %29.96 in10.0 miEast (90°)16.1 mph21.9 mphScattered Clouds
10:54 AM87.1 °F75.9 °F69 %29.93 in10.0 miEast (100°)13.8 mph25.3 mphScattered Clouds
11:11 AM86.0 °F75.2 °F70 %29.95 in10.0 miEast (90°)17.3 mphMostly Cloudy
11:54 AM87.1 °F75.0 °F67 %29.91 in10.0 miEast (80°)13.8 mph23.0 mphMostly Cloudy
12:08 PM86.0 °F75.2 °F70 %29.93 in10.0 miEast (90°)13.8 mph20.7 mphMostly Cloudy
12:26 PM87.8 °F75.2 °F66 %29.93 in10.0 miEast (90°)13.8 mph20.7 mphMostly Cloudy
12:54 PM88.0 °F75.0 °F65 %29.89 in10.0 miENE (70°)17.3 mphMostly Cloudy
1:04 PM87.8 °F75.2 °F66 %29.91 in10.0 miEast (90°)15.0 mphScattered Clouds
1:54 PM88.0 °F73.9 °F63 %29.86 in10.0 miEast (80°)17.3 mphPartly Cloudy
2:54 PM88.0 °F75.9 °F67 %29.85 in10.0 miEast (90°)12.7 mph20.7 mphScattered Clouds
3:54 PM87.1 °F75.9 °F69 %29.83 in10.0 miEast (90°)10.4 mphPartly Cloudy
4:54 PM87.1 °F73.9 °F65 %29.84 in10.0 miENE (60°)13.8 mphPartly Cloudy
5:54 PM84.9 °F75.0 °F72 %29.85 in10.0 miENE (70°)10.4 mphPartly Cloudy
6:54 PM82.0 °F75.0 °F79 %29.87 in10.0 miENE (60°)10.4 mphScattered Clouds
7:54 PM82.0 °F75.0 °F79 %29.89 in10.0 miENE (70°)10.4 mphMostly Cloudy
8:54 PM82.0 °F75.9 °F82 %29.91 in10.0 miENE (60°)13.8 mphScattered Clouds
9:43 PM80.6 °F75.2 °F84 %29.94 in10.0 miENE (70°)16.1 mphScattered Clouds
9:54 PM81.0 °F75.0 °F82 %29.92 in10.0 miENE (70°)16.1 mph24.2 mphMostly Cloudy
10:12 PM80.6 °F73.4 °F79 %29.95 in10.0 miENE (60°)16.1 mphScattered Clouds
10:29 PM80.6 °F75.2 °F84 %29.95 in10.0 miENE (60°)13.8 mphPartly Cloudy
10:54 PM80.1 °F73.0 °F79 %29.92 in10.0 miENE (70°)17.3 mphClear
11:54 PM79.0 °F72.0 °F79 %29.91 in10.0 miEast (80°)18.4 mph25.3 mphClear
Hourly data recorded from PGUM, located miles away from Upi, Guam







STORIES FROM OUR PARTNERS